Year,Month,Day,Hour,Minute,Value (Times are PST for windspeed in km/hr)
2016,07,30,00,00,15.80
2016,07,30,00,01,17.30
2016,07,30,00,02,18.20
2016,07,30,00,03,19.10
2016,07,30,00,04,16.80
2016,07,30,00,05,17.20
2016,07,30,00,06,13.90
2016,07,30,00,07,16.70
2016,07,30,00,08,15.20
2016,07,30,00,09,15.40
2016,07,30,00,10,18.40
2016,07,30,00,11,11.10
2016,07,30,00,12,14.20
2016,07,30,00,13,20.20
2016,07,30,00,14,13.10
2016,07,30,00,15,14.10
2016,07,30,00,16,13.20
2016,07,30,00,17,14.10
2016,07,30,00,18,16.60
2016,07,30,00,19,10.70
2016,07,30,00,20,17.50
2016,07,30,00,21,14.40
2016,07,30,00,22,8.20
2016,07,30,00,23,10.90
2016,07,30,00,24,14.80
2016,07,30,00,25,11.20
2016,07,30,00,26,10.20
2016,07,30,00,27,15.40
2016,07,30,00,28,11.50
2016,07,30,00,29,13.00
2016,07,30,00,30,15.10
2016,07,30,00,31,22.20
2016,07,30,00,32,14.50
2016,07,30,00,33,11.70
2016,07,30,00,34,6.90
2016,07,30,00,35,10.80
2016,07,30,00,36,9.30
2016,07,30,00,37,12.50
2016,07,30,00,38,11.10
2016,07,30,00,39,10.50
2016,07,30,00,40,8.00
2016,07,30,00,41,12.50
2016,07,30,00,42,11.60
2016,07,30,00,43,18.10
2016,07,30,00,44,18.40
2016,07,30,00,45,12.30
2016,07,30,00,46,16.90
2016,07,30,00,47,16.20
2016,07,30,00,48,11.30
2016,07,30,00,49,13.30
2016,07,30,00,50,13.30
2016,07,30,00,51,11.60
2016,07,30,00,52,10.50
2016,07,30,00,53,10.60
2016,07,30,00,54,21.90
2016,07,30,00,55,15.40
2016,07,30,00,56,14.70
2016,07,30,00,57,12.80
2016,07,30,00,58,14.50
2016,07,30,00,59,8.50
2016,07,30,01,00,9.80
2016,07,30,01,01,15.60
2016,07,30,01,02,14.50
2016,07,30,01,03,12.90
2016,07,30,01,04,16.70
2016,07,30,01,05,14.60
2016,07,30,01,06,15.00
2016,07,30,01,07,16.00
2016,07,30,01,08,14.20
2016,07,30,01,09,8.40
2016,07,30,01,10,11.70
2016,07,30,01,11,12.60
2016,07,30,01,12,13.20
2016,07,30,01,13,11.40
2016,07,30,01,14,12.40
2016,07,30,01,15,12.70
2016,07,30,01,16,12.00
2016,07,30,01,17,10.30
2016,07,30,01,18,12.50
2016,07,30,01,19,12.60
2016,07,30,01,20,15.40
2016,07,30,01,21,15.00
2016,07,30,01,22,9.00
2016,07,30,01,23,12.90
2016,07,30,01,24,14.40
2016,07,30,01,25,11.70
2016,07,30,01,26,13.20
2016,07,30,01,27,11.80
2016,07,30,01,28,12.50
2016,07,30,01,29,18.50
2016,07,30,01,30,15.10
2016,07,30,01,31,13.10
2016,07,30,01,32,10.40
2016,07,30,01,33,10.00
2016,07,30,01,34,8.80
2016,07,30,01,35,12.30
2016,07,30,01,36,13.50
2016,07,30,01,37,6.60
2016,07,30,01,38,5.70
2016,07,30,01,39,6.40
2016,07,30,01,40,10.00
2016,07,30,01,41,4.40
2016,07,30,01,42,6.80
2016,07,30,01,43,8.30
2016,07,30,01,44,8.00
2016,07,30,01,45,6.10
2016,07,30,01,46,8.40
2016,07,30,01,47,7.60
2016,07,30,01,48,9.30
2016,07,30,01,49,7.30
2016,07,30,01,50,7.70
2016,07,30,01,51,13.50
2016,07,30,01,52,10.50
2016,07,30,01,53,11.90
2016,07,30,01,54,10.90
2016,07,30,01,55,11.00
2016,07,30,01,56,14.20
2016,07,30,01,57,7.60
2016,07,30,01,58,12.00
2016,07,30,01,59,12.20
2016,07,30,02,00,11.50
2016,07,30,02,01,11.30
2016,07,30,02,02,11.90
2016,07,30,02,03,12.70
2016,07,30,02,04,11.10
2016,07,30,02,05,14.30
2016,07,30,02,06,7.70
2016,07,30,02,07,11.10
2016,07,30,02,08,9.50
2016,07,30,02,09,8.90
2016,07,30,02,10,10.60
2016,07,30,02,11,12.50
2016,07,30,02,12,9.90
2016,07,30,02,13,10.80
2016,07,30,02,14,8.20
2016,07,30,02,15,12.80
2016,07,30,02,16,11.40
2016,07,30,02,17,14.50
2016,07,30,02,18,14.70
2016,07,30,02,19,13.50
2016,07,30,02,20,18.80
2016,07,30,02,21,13.20
2016,07,30,02,22,16.70
2016,07,30,02,23,17.70
2016,07,30,02,24,17.00
2016,07,30,02,25,11.10
2016,07,30,02,26,20.30
2016,07,30,02,27,15.70
2016,07,30,02,28,17.20
2016,07,30,02,29,10.70
2016,07,30,02,30,15.30
2016,07,30,02,31,9.50
2016,07,30,02,32,15.40
2016,07,30,02,33,17.50
2016,07,30,02,34,11.60
2016,07,30,02,35,13.90
2016,07,30,02,36,16.60
2016,07,30,02,37,16.00
2016,07,30,02,38,17.30
2016,07,30,02,39,16.10
2016,07,30,02,40,11.40
2016,07,30,02,41,15.90
2016,07,30,02,42,15.90
2016,07,30,02,43,25.30
2016,07,30,02,44,24.60
2016,07,30,02,45,25.00
2016,07,30,02,46,19.40
2016,07,30,02,47,16.50
2016,07,30,02,48,21.10
2016,07,30,02,49,17.60
2016,07,30,02,50,17.00
2016,07,30,02,51,22.40
2016,07,30,02,52,20.30
2016,07,30,02,53,16.10
2016,07,30,02,54,15.60
2016,07,30,02,55,12.10
2016,07,30,02,56,12.30
2016,07,30,02,57,11.90
2016,07,30,02,58,15.90
2016,07,30,02,59,13.70
2016,07,30,03,00,20.40
2016,07,30,03,01,11.60
2016,07,30,03,02,13.70
2016,07,30,03,03,16.60
2016,07,30,03,04,13.90
2016,07,30,03,05,16.80
2016,07,30,03,06,13.40
2016,07,30,03,07,13.80
2016,07,30,03,08,11.10
2016,07,30,03,09,14.20
2016,07,30,03,10,12.70
2016,07,30,03,11,13.50
2016,07,30,03,12,12.20
2016,07,30,03,13,14.10
2016,07,30,03,14,10.30
2016,07,30,03,15,13.50
2016,07,30,03,16,10.70
2016,07,30,03,17,10.60
2016,07,30,03,18,11.40
2016,07,30,03,19,12.60
2016,07,30,03,20,15.40
2016,07,30,03,21,15.60
2016,07,30,03,22,14.30
2016,07,30,03,23,15.40
2016,07,30,03,24,18.30
2016,07,30,03,25,20.10
2016,07,30,03,26,15.70
2016,07,30,03,27,19.70
2016,07,30,03,28,16.80
2016,07,30,03,29,19.50
2016,07,30,03,30,18.40
2016,07,30,03,31,16.60
2016,07,30,03,32,22.60
2016,07,30,03,33,18.40
2016,07,30,03,34,14.00
2016,07,30,03,35,17.80
2016,07,30,03,36,15.20
2016,07,30,03,37,13.50
2016,07,30,03,38,13.40
2016,07,30,03,39,20.10
2016,07,30,03,40,19.80
2016,07,30,03,41,15.70
2016,07,30,03,42,18.70
2016,07,30,03,43,14.80
2016,07,30,03,44,13.60
2016,07,30,03,45,12.20
2016,07,30,03,46,9.70
2016,07,30,03,47,8.50
2016,07,30,03,48,14.00
2016,07,30,03,49,11.20
2016,07,30,03,50,12.10
2016,07,30,03,51,12.00
2016,07,30,03,52,16.00
2016,07,30,03,53,9.10
2016,07,30,03,54,13.50
2016,07,30,03,55,9.50
2016,07,30,03,56,12.60
2016,07,30,03,57,12.00
2016,07,30,03,58,8.60
2016,07,30,03,59,9.10
2016,07,30,04,00,10.50
2016,07,30,04,01,13.20
2016,07,30,04,02,19.10
2016,07,30,04,03,9.20
2016,07,30,04,05,12.90
2016,07,30,04,06,9.40
2016,07,30,04,07,9.60
2016,07,30,04,08,8.50
2016,07,30,04,09,8.90
2016,07,30,04,10,9.20
2016,07,30,04,11,5.10
2016,07,30,04,12,9.90
2016,07,30,04,13,7.00
2016,07,30,04,14,15.70
2016,07,30,04,15,9.00
2016,07,30,04,16,10.30
2016,07,30,04,17,6.70
2016,07,30,04,18,11.20
2016,07,30,04,19,7.00
2016,07,30,04,20,11.10
2016,07,30,04,21,12.30
2016,07,30,04,22,13.30
2016,07,30,04,23,12.00
2016,07,30,04,24,10.40
2016,07,30,04,25,13.60
2016,07,30,04,26,10.90
2016,07,30,04,27,11.90
2016,07,30,04,28,11.30
2016,07,30,04,29,11.50
2016,07,30,04,30,10.60
2016,07,30,04,31,13.60
2016,07,30,04,32,12.30
2016,07,30,04,33,12.20
2016,07,30,04,34,14.20
2016,07,30,04,35,10.00
2016,07,30,04,36,15.00
2016,07,30,04,37,11.10
2016,07,30,04,38,10.70
2016,07,30,04,39,10.80
2016,07,30,04,40,12.00
2016,07,30,04,41,10.30
2016,07,30,04,42,8.50
2016,07,30,04,43,14.20
2016,07,30,04,44,8.30
2016,07,30,04,45,5.20
2016,07,30,04,46,4.70
2016,07,30,04,47,6.20
2016,07,30,04,48,9.40
2016,07,30,04,49,7.10
2016,07,30,04,50,11.80
2016,07,30,04,51,10.10
2016,07,30,04,52,6.80
2016,07,30,04,53,10.70
2016,07,30,04,54,10.90
2016,07,30,04,55,14.40
2016,07,30,04,56,9.20
2016,07,30,04,57,16.40
2016,07,30,04,58,12.90
2016,07,30,04,59,11.60
2016,07,30,05,00,6.60
2016,07,30,05,01,9.60
2016,07,30,05,02,13.80
2016,07,30,05,03,17.50
2016,07,30,05,04,8.80
2016,07,30,05,05,12.30
2016,07,30,05,06,15.40
2016,07,30,05,07,12.60
2016,07,30,05,08,12.70
2016,07,30,05,09,9.10
2016,07,30,05,10,5.80
2016,07,30,05,11,12.00
2016,07,30,05,12,8.80
2016,07,30,05,13,11.40
2016,07,30,05,14,16.80
2016,07,30,05,15,10.20
2016,07,30,05,16,11.30
2016,07,30,05,17,11.00
2016,07,30,05,18,13.20
2016,07,30,05,19,12.50
2016,07,30,05,20,16.60
2016,07,30,05,21,15.40
2016,07,30,05,22,15.20
2016,07,30,05,23,15.00
2016,07,30,05,24,11.90
2016,07,30,05,25,12.80
2016,07,30,05,26,10.30
2016,07,30,05,27,9.60
2016,07,30,05,28,14.40
2016,07,30,05,29,15.40
2016,07,30,05,30,13.70
2016,07,30,05,31,8.60
2016,07,30,05,32,17.60
2016,07,30,05,33,16.20
2016,07,30,05,34,20.90
2016,07,30,05,35,18.40
2016,07,30,05,36,17.20
2016,07,30,05,37,19.60
2016,07,30,05,38,15.80
2016,07,30,05,39,14.60
2016,07,30,05,40,17.90
2016,07,30,05,41,18.20
2016,07,30,05,42,16.90
2016,07,30,05,43,21.60
2016,07,30,05,44,19.30
2016,07,30,05,45,13.20
2016,07,30,05,46,11.20
2016,07,30,05,47,14.70
2016,07,30,05,48,17.00
2016,07,30,05,49,12.60
2016,07,30,05,50,13.70
2016,07,30,05,51,17.50
2016,07,30,05,52,12.00
2016,07,30,05,53,11.40
2016,07,30,05,54,11.20
2016,07,30,05,55,11.40
2016,07,30,05,56,13.50
2016,07,30,05,57,12.60
2016,07,30,05,58,12.50
2016,07,30,05,59,14.80
2016,07,30,06,00,15.80
2016,07,30,06,01,11.90
2016,07,30,06,02,11.50
2016,07,30,06,03,12.00
2016,07,30,06,04,10.50
2016,07,30,06,05,14.30
2016,07,30,06,06,14.80
2016,07,30,06,07,11.30
2016,07,30,06,08,9.70
2016,07,30,06,09,10.30
2016,07,30,06,10,8.80
2016,07,30,06,11,10.40
2016,07,30,06,12,10.60
2016,07,30,06,13,9.60
2016,07,30,06,14,9.20
2016,07,30,06,15,11.60
2016,07,30,06,16,10.50
2016,07,30,06,17,11.30
2016,07,30,06,18,11.30
2016,07,30,06,19,9.60
2016,07,30,06,20,13.70
2016,07,30,06,21,12.50
2016,07,30,06,22,10.60
2016,07,30,06,23,11.10
2016,07,30,06,24,7.00
2016,07,30,06,25,8.70
2016,07,30,06,26,6.90
2016,07,30,06,27,8.50
2016,07,30,06,28,13.60
2016,07,30,06,29,12.10
2016,07,30,06,30,9.50
2016,07,30,06,31,9.50
2016,07,30,06,32,9.70
2016,07,30,06,33,7.40
2016,07,30,06,34,15.00
2016,07,30,06,35,12.20
2016,07,30,06,36,13.10
2016,07,30,06,37,11.70
2016,07,30,06,38,10.40
2016,07,30,06,39,8.40
2016,07,30,06,40,12.80
2016,07,30,06,41,16.60
2016,07,30,06,42,18.80
2016,07,30,06,43,12.50
2016,07,30,06,44,11.40
2016,07,30,06,45,13.90
2016,07,30,06,46,13.80
2016,07,30,06,47,8.90
2016,07,30,06,48,11.00
2016,07,30,06,49,11.70
2016,07,30,06,50,13.10
2016,07,30,06,51,12.00
2016,07,30,06,52,13.40
2016,07,30,06,53,12.30
2016,07,30,06,54,12.00
2016,07,30,06,55,11.70
2016,07,30,06,56,8.70
2016,07,30,06,57,8.40
2016,07,30,06,58,13.50
2016,07,30,06,59,9.80
2016,07,30,07,00,12.40
2016,07,30,07,01,11.50
2016,07,30,07,02,13.90
2016,07,30,07,03,12.80
2016,07,30,07,04,11.20
2016,07,30,07,05,7.80
2016,07,30,07,06,12.60
2016,07,30,07,07,7.10
2016,07,30,07,08,3.90
2016,07,30,07,09,5.40
2016,07,30,07,10,10.90
2016,07,30,07,11,8.10
2016,07,30,07,12,6.80
2016,07,30,07,13,10.80
2016,07,30,07,14,10.10
2016,07,30,07,15,10.40
2016,07,30,07,16,9.10
2016,07,30,07,17,10.50
2016,07,30,07,18,10.20
2016,07,30,07,19,12.20
2016,07,30,07,20,15.10
2016,07,30,07,21,18.80
2016,07,30,07,22,18.20
2016,07,30,07,23,15.60
2016,07,30,07,24,12.60
2016,07,30,07,25,15.90
2016,07,30,07,26,13.60
2016,07,30,07,27,9.90
2016,07,30,07,28,15.60
2016,07,30,07,29,15.40
2016,07,30,07,30,10.20
2016,07,30,07,31,10.70
2016,07,30,07,32,15.50
2016,07,30,07,33,15.70
2016,07,30,07,34,15.10
2016,07,30,07,35,18.70
2016,07,30,07,36,17.80
2016,07,30,07,37,12.40
2016,07,30,07,38,17.20
2016,07,30,07,39,16.40
2016,07,30,07,40,9.20
2016,07,30,07,41,7.90
2016,07,30,07,42,15.60
2016,07,30,07,43,21.00
2016,07,30,07,44,11.70
2016,07,30,07,45,9.70
2016,07,30,07,46,9.50
2016,07,30,07,47,8.80
2016,07,30,07,48,14.20
2016,07,30,07,49,16.30
2016,07,30,07,50,19.70
2016,07,30,07,51,13.20
2016,07,30,07,52,10.80
2016,07,30,07,53,10.70
2016,07,30,07,54,16.20
2016,07,30,07,55,16.30
2016,07,30,07,56,14.00
2016,07,30,07,57,12.10
2016,07,30,07,58,13.60
2016,07,30,07,59,8.50
2016,07,30,08,00,13.70
2016,07,30,08,01,14.40
2016,07,30,08,02,15.90
2016,07,30,08,03,19.70
2016,07,30,08,04,15.80
2016,07,30,08,05,14.10
2016,07,30,08,06,10.00
2016,07,30,08,07,11.90
2016,07,30,08,08,12.50
2016,07,30,08,09,13.40
2016,07,30,08,10,8.50
2016,07,30,08,11,16.70
2016,07,30,08,12,15.60
2016,07,30,08,13,21.40
2016,07,30,08,14,14.50
2016,07,30,08,15,14.50
2016,07,30,08,16,9.20
2016,07,30,08,17,13.70
2016,07,30,08,18,16.20
2016,07,30,08,19,14.20
2016,07,30,08,20,14.30
2016,07,30,08,21,14.90
2016,07,30,08,22,11.00
2016,07,30,08,23,16.80
2016,07,30,08,24,19.90
2016,07,30,08,25,16.10
2016,07,30,08,26,14.80
2016,07,30,08,27,13.00
2016,07,30,08,28,17.50
2016,07,30,08,29,17.00
2016,07,30,08,30,14.90
2016,07,30,08,31,12.20
2016,07,30,08,32,16.60
2016,07,30,08,33,12.90
2016,07,30,08,34,11.90
2016,07,30,08,35,10.80
2016,07,30,08,36,17.80
2016,07,30,08,37,16.40
2016,07,30,08,38,15.30
2016,07,30,08,39,14.10
2016,07,30,08,40,21.40
2016,07,30,08,41,16.50
2016,07,30,08,42,15.20
2016,07,30,08,43,11.20
2016,07,30,08,44,17.50
2016,07,30,08,45,13.30
2016,07,30,08,46,15.90
2016,07,30,08,47,19.30
2016,07,30,08,48,14.90
2016,07,30,08,49,12.10
2016,07,30,08,50,13.50
2016,07,30,08,51,17.50
2016,07,30,08,52,18.40
2016,07,30,08,53,17.00
2016,07,30,08,54,15.00
2016,07,30,08,55,12.60
2016,07,30,08,56,19.50
2016,07,30,08,57,16.50
2016,07,30,08,58,15.90
2016,07,30,08,59,26.20
2016,07,30,09,00,21.70
2016,07,30,09,01,18.90
2016,07,30,09,02,19.00
2016,07,30,09,03,19.40
2016,07,30,09,04,20.20
2016,07,30,09,05,15.50
2016,07,30,09,06,17.30
2016,07,30,09,07,17.10
2016,07,30,09,08,18.60
2016,07,30,09,09,23.30
2016,07,30,09,10,15.90
2016,07,30,09,11,19.10
2016,07,30,09,12,14.70
2016,07,30,09,13,16.20
2016,07,30,09,14,14.70
2016,07,30,09,15,19.70
2016,07,30,09,16,22.40
2016,07,30,09,17,18.20
2016,07,30,09,18,18.50
2016,07,30,09,19,19.00
2016,07,30,09,20,21.20
2016,07,30,09,21,25.30
2016,07,30,09,22,19.10
2016,07,30,09,23,20.60
2016,07,30,09,24,11.50
2016,07,30,09,25,19.40
2016,07,30,09,26,17.70
2016,07,30,09,27,12.50
2016,07,30,09,28,10.80
2016,07,30,09,29,20.10
2016,07,30,09,30,21.90
2016,07,30,09,31,15.10
2016,07,30,09,32,14.90
2016,07,30,09,33,12.60
2016,07,30,09,34,15.30
2016,07,30,09,35,16.00
2016,07,30,09,36,21.20
2016,07,30,09,37,19.80
2016,07,30,09,38,22.80
2016,07,30,09,39,21.50
2016,07,30,09,40,21.40
2016,07,30,09,41,22.50
2016,07,30,09,42,15.00
2016,07,30,09,43,17.50
2016,07,30,09,44,14.50
2016,07,30,09,45,17.80
2016,07,30,09,46,18.50
2016,07,30,09,47,18.70
2016,07,30,09,48,19.80
2016,07,30,09,49,17.50
2016,07,30,09,50,21.30
2016,07,30,09,51,21.00
2016,07,30,09,52,20.10
2016,07,30,09,53,23.60
2016,07,30,09,54,19.40
2016,07,30,09,55,11.60
2016,07,30,09,56,11.80
2016,07,30,09,57,14.50
2016,07,30,09,58,10.30
2016,07,30,09,59,20.70
2016,07,30,10,00,8.90
2016,07,30,10,01,19.70
2016,07,30,10,02,19.70
2016,07,30,10,03,22.30
2016,07,30,10,04,13.70
2016,07,30,10,05,21.00
2016,07,30,10,06,12.50
2016,07,30,10,07,17.30
2016,07,30,10,08,23.40
2016,07,30,10,09,23.50
2016,07,30,10,10,16.50
2016,07,30,10,11,17.60
2016,07,30,10,12,18.90
2016,07,30,10,13,13.40
2016,07,30,10,14,19.40
2016,07,30,10,15,24.00
2016,07,30,10,16,19.30
2016,07,30,10,17,14.00
2016,07,30,10,18,17.70
2016,07,30,10,19,21.50
2016,07,30,10,20,18.40
2016,07,30,10,21,20.30
2016,07,30,10,22,22.20
2016,07,30,10,23,19.80
2016,07,30,10,24,18.80
2016,07,30,10,25,21.80
2016,07,30,10,26,24.70
2016,07,30,10,27,17.90
2016,07,30,10,28,19.40
2016,07,30,10,29,17.60
2016,07,30,10,30,22.90
2016,07,30,10,31,18.50
2016,07,30,10,32,22.50
2016,07,30,10,33,18.30
2016,07,30,10,34,22.40
2016,07,30,10,35,19.00
2016,07,30,10,36,25.20
2016,07,30,10,37,14.20
2016,07,30,10,38,23.70
2016,07,30,10,39,23.20
2016,07,30,10,40,19.70
2016,07,30,10,41,20.90
2016,07,30,10,42,21.30
2016,07,30,10,43,15.20
2016,07,30,10,44,14.50
2016,07,30,10,45,17.80
2016,07,30,10,46,15.70
2016,07,30,10,47,19.20
2016,07,30,10,48,12.00
2016,07,30,10,49,17.20
2016,07,30,10,50,14.40
2016,07,30,10,51,15.40
2016,07,30,10,52,13.80
2016,07,30,10,53,18.40
2016,07,30,10,54,18.70
2016,07,30,10,55,16.40
2016,07,30,10,56,29.10
2016,07,30,10,57,19.30
2016,07,30,10,58,18.70
2016,07,30,10,59,13.50
2016,07,30,11,00,18.30
2016,07,30,11,01,13.40
2016,07,30,11,02,19.00
2016,07,30,11,03,19.70
2016,07,30,11,04,15.00
2016,07,30,11,05,25.20
2016,07,30,11,06,30.90
2016,07,30,11,07,23.80
2016,07,30,11,08,20.30
2016,07,30,11,09,25.00
2016,07,30,11,10,23.90
2016,07,30,11,11,17.30
2016,07,30,11,12,16.40
2016,07,30,11,13,22.10
2016,07,30,11,14,16.00
2016,07,30,11,15,19.30
2016,07,30,11,16,16.40
2016,07,30,11,17,18.10
2016,07,30,11,18,16.70
2016,07,30,11,19,14.50
2016,07,30,11,20,19.30
2016,07,30,11,21,24.90
2016,07,30,11,22,27.80
2016,07,30,11,23,20.70
2016,07,30,11,24,16.90
2016,07,30,11,25,22.30
2016,07,30,11,26,22.90
2016,07,30,11,27,20.90
2016,07,30,11,28,17.90
2016,07,30,11,29,13.40
2016,07,30,11,30,24.00
2016,07,30,11,31,24.90
2016,07,30,11,32,18.50
2016,07,30,11,33,22.50
2016,07,30,11,34,20.70
2016,07,30,11,35,21.90
2016,07,30,11,36,23.60
2016,07,30,11,37,20.80
2016,07,30,11,38,16.80
2016,07,30,11,39,15.20
2016,07,30,11,40,12.10
2016,07,30,11,41,15.30
2016,07,30,11,42,16.70
2016,07,30,11,43,16.40
2016,07,30,11,44,15.90
2016,07,30,11,45,17.60
2016,07,30,11,46,26.40
2016,07,30,11,47,27.90
2016,07,30,11,48,21.60
2016,07,30,11,49,18.20
2016,07,30,11,50,21.30
2016,07,30,11,51,16.20
2016,07,30,11,52,18.90
2016,07,30,11,53,22.50
2016,07,30,11,54,24.60
2016,07,30,11,55,23.80
2016,07,30,11,56,17.00
2016,07,30,11,57,15.50
2016,07,30,11,58,23.30
2016,07,30,11,59,24.10
2016,07,30,12,00,25.10
2016,07,30,12,01,23.20
2016,07,30,12,02,20.80
2016,07,30,12,03,19.60
2016,07,30,12,04,15.40
2016,07,30,12,05,14.90
2016,07,30,12,06,19.70
2016,07,30,12,07,13.70
2016,07,30,12,08,13.90
2016,07,30,12,09,15.30
2016,07,30,12,10,13.10
2016,07,30,12,11,17.50
2016,07,30,12,12,16.30
2016,07,30,12,13,14.10
2016,07,30,12,14,22.00
2016,07,30,12,15,21.00
2016,07,30,12,16,26.50
2016,07,30,12,17,21.90
2016,07,30,12,18,20.30
2016,07,30,12,19,16.20
2016,07,30,12,20,18.80
2016,07,30,12,21,25.00
2016,07,30,12,22,17.00
2016,07,30,12,23,28.60
2016,07,30,12,24,21.30
2016,07,30,12,25,27.90
2016,07,30,12,26,19.30
2016,07,30,12,27,19.70
2016,07,30,12,28,23.50
2016,07,30,12,29,24.30
2016,07,30,12,30,28.90
2016,07,30,12,31,24.10
2016,07,30,12,32,28.40
2016,07,30,12,33,25.30
2016,07,30,12,34,20.30
2016,07,30,12,35,20.60
2016,07,30,12,36,20.50
2016,07,30,12,37,22.70
2016,07,30,12,38,16.80
2016,07,30,12,39,26.50
2016,07,30,12,40,18.90
2016,07,30,12,41,21.80
2016,07,30,12,42,17.50
2016,07,30,12,43,30.40
2016,07,30,12,44,22.20
2016,07,30,12,45,23.70
2016,07,30,12,46,24.10
2016,07,30,12,47,28.60
2016,07,30,12,48,27.10
2016,07,30,12,49,18.20
2016,07,30,12,50,16.40
2016,07,30,12,51,18.50
2016,07,30,12,52,16.20
2016,07,30,12,53,21.60
2016,07,30,12,54,15.80
2016,07,30,12,55,18.10
2016,07,30,12,56,19.90
2016,07,30,12,57,14.80
2016,07,30,12,58,16.30
2016,07,30,12,59,24.80
2016,07,30,13,00,21.30
2016,07,30,13,01,29.70
2016,07,30,13,02,28.50
2016,07,30,13,03,22.60
2016,07,30,13,04,24.90
2016,07,30,13,05,18.70
2016,07,30,13,06,16.10
2016,07,30,13,07,17.30
2016,07,30,13,08,16.80
2016,07,30,13,09,24.00
2016,07,30,13,10,21.10
2016,07,30,13,11,24.40
2016,07,30,13,12,23.60
2016,07,30,13,13,26.30
2016,07,30,13,14,28.50
2016,07,30,13,15,31.80
2016,07,30,13,16,25.70
2016,07,30,13,17,27.80
2016,07,30,13,18,29.40
2016,07,30,13,19,25.90
2016,07,30,13,20,27.00
2016,07,30,13,21,24.10
2016,07,30,13,22,25.20
2016,07,30,13,23,24.80
2016,07,30,13,24,20.80
2016,07,30,13,25,31.90
2016,07,30,13,26,24.90
2016,07,30,13,27,26.00
2016,07,30,13,28,20.20
2016,07,30,13,29,23.20
2016,07,30,13,30,23.10
2016,07,30,13,31,25.70
2016,07,30,13,32,24.80
2016,07,30,13,33,25.30
2016,07,30,13,34,28.10
2016,07,30,13,35,21.30
2016,07,30,13,36,22.90
2016,07,30,13,37,25.10
2016,07,30,13,38,26.90
2016,07,30,13,39,28.60
2016,07,30,13,40,29.10
2016,07,30,13,41,24.30
2016,07,30,13,42,23.40
2016,07,30,13,43,31.40
2016,07,30,13,44,23.00
2016,07,30,13,45,29.20
2016,07,30,13,46,25.70
2016,07,30,13,47,26.00
2016,07,30,13,48,30.90
2016,07,30,13,49,24.70
2016,07,30,13,50,23.10
2016,07,30,13,51,29.30
2016,07,30,13,52,26.50
2016,07,30,13,53,22.60
2016,07,30,13,54,24.70
2016,07,30,13,55,17.80
2016,07,30,13,56,24.00
2016,07,30,13,57,21.30
2016,07,30,13,58,16.40
2016,07,30,13,59,21.00
2016,07,30,14,00,20.90
2016,07,30,14,01,24.90
2016,07,30,14,02,28.80
2016,07,30,14,03,22.70
2016,07,30,14,04,22.20
2016,07,30,14,05,25.20
2016,07,30,14,06,21.70
2016,07,30,14,07,27.10
2016,07,30,14,08,24.10
2016,07,30,14,09,22.40
2016,07,30,14,10,25.60
2016,07,30,14,11,11.40
2016,07,30,14,12,21.60
2016,07,30,14,13,19.10
2016,07,30,14,14,26.20
2016,07,30,14,15,20.10
2016,07,30,14,16,23.50
2016,07,30,14,17,15.00
2016,07,30,14,18,25.30
2016,07,30,14,19,23.40
2016,07,30,14,20,19.80
2016,07,30,14,21,23.70
2016,07,30,14,22,18.30
2016,07,30,14,23,19.00
2016,07,30,14,24,25.10
2016,07,30,14,25,21.50
2016,07,30,14,26,20.70
2016,07,30,14,27,25.30
2016,07,30,14,28,22.10
2016,07,30,14,29,27.50
2016,07,30,14,30,32.80
2016,07,30,14,31,24.50
2016,07,30,14,32,23.10
2016,07,30,14,33,19.30
2016,07,30,14,34,23.60
2016,07,30,14,35,30.70
2016,07,30,14,36,32.10
2016,07,30,14,37,27.20
2016,07,30,14,38,32.40
2016,07,30,14,39,26.90
2016,07,30,14,40,22.60
2016,07,30,14,41,23.10
2016,07,30,14,42,22.40
2016,07,30,14,43,25.20
2016,07,30,14,44,21.10
2016,07,30,14,45,24.40
2016,07,30,14,46,31.80
2016,07,30,14,47,24.60
2016,07,30,14,48,17.40
2016,07,30,14,49,21.90
2016,07,30,14,50,18.60
2016,07,30,14,51,32.10
2016,07,30,14,52,23.70
2016,07,30,14,53,26.70
2016,07,30,14,54,21.10
2016,07,30,14,55,16.80
2016,07,30,14,56,26.50
2016,07,30,14,57,31.90
2016,07,30,14,58,29.80
2016,07,30,14,59,32.50
2016,07,30,15,00,28.10
2016,07,30,15,01,30.80
2016,07,30,15,02,17.80
2016,07,30,15,03,22.70
2016,07,30,15,04,20.30
2016,07,30,15,05,24.40
2016,07,30,15,06,24.70
2016,07,30,15,07,32.80
2016,07,30,15,08,23.00
2016,07,30,15,09,28.20
2016,07,30,15,10,23.60
2016,07,30,15,11,22.20
2016,07,30,15,12,29.60
2016,07,30,15,13,25.80
2016,07,30,15,14,26.10
2016,07,30,15,15,29.90
2016,07,30,15,16,25.40
2016,07,30,15,17,24.70
2016,07,30,15,18,23.70
2016,07,30,15,19,26.50
2016,07,30,15,20,21.90
2016,07,30,15,21,20.10
2016,07,30,15,22,30.00
2016,07,30,15,23,28.50
2016,07,30,15,24,23.40
2016,07,30,15,25,26.30
2016,07,30,15,26,29.70
2016,07,30,15,27,28.80
2016,07,30,15,28,34.20
2016,07,30,15,29,25.00
2016,07,30,15,30,29.60
2016,07,30,15,31,24.30
2016,07,30,15,32,21.30
2016,07,30,15,33,25.30
2016,07,30,15,34,18.20
2016,07,30,15,35,17.60
2016,07,30,15,36,24.30
2016,07,30,15,37,25.30
2016,07,30,15,38,27.90
2016,07,30,15,39,32.10
2016,07,30,15,40,25.20
2016,07,30,15,41,25.90
2016,07,30,15,42,28.70
2016,07,30,15,43,29.10
2016,07,30,15,44,33.90
2016,07,30,15,45,24.40
2016,07,30,15,46,26.30
2016,07,30,15,47,22.10
2016,07,30,15,48,29.40
2016,07,30,15,49,23.50
2016,07,30,15,50,30.70
2016,07,30,15,51,26.90
2016,07,30,15,52,28.40
2016,07,30,15,53,20.60
2016,07,30,15,54,29.10
2016,07,30,15,55,19.10
2016,07,30,15,56,17.80
2016,07,30,15,57,22.10
2016,07,30,15,58,21.60
2016,07,30,15,59,23.20
2016,07,30,16,00,23.10
2016,07,30,16,01,27.00
2016,07,30,16,02,22.60
2016,07,30,16,03,23.20
2016,07,30,16,04,30.10
2016,07,30,16,05,25.10
2016,07,30,16,06,21.40
2016,07,30,16,07,17.10
2016,07,30,16,08,29.70
2016,07,30,16,09,26.70
2016,07,30,16,10,20.60
2016,07,30,16,11,22.00
2016,07,30,16,12,27.20
2016,07,30,16,13,25.30
2016,07,30,16,14,21.80
2016,07,30,16,15,21.30
2016,07,30,16,16,22.50
2016,07,30,16,17,24.10
2016,07,30,16,18,23.50
2016,07,30,16,19,25.10
2016,07,30,16,20,22.90
2016,07,30,16,21,14.70
2016,07,30,16,22,25.50
2016,07,30,16,23,25.90
2016,07,30,16,24,21.90
2016,07,30,16,25,22.50
2016,07,30,16,26,23.80
2016,07,30,16,27,30.30
2016,07,30,16,28,26.50
2016,07,30,16,29,28.10
2016,07,30,16,30,19.30
2016,07,30,16,31,24.40
2016,07,30,16,32,22.90
2016,07,30,16,33,23.80
2016,07,30,16,34,20.90
2016,07,30,16,35,17.90
2016,07,30,16,36,15.70
2016,07,30,16,37,14.80
2016,07,30,16,38,21.30
2016,07,30,16,39,15.20
2016,07,30,16,40,19.40
2016,07,30,16,41,25.60
2016,07,30,16,42,30.40
2016,07,30,16,43,23.20
2016,07,30,16,44,20.30
2016,07,30,16,45,22.00
2016,07,30,16,46,15.40
2016,07,30,16,47,23.80
2016,07,30,16,48,20.60
2016,07,30,16,49,19.40
2016,07,30,16,50,28.20
2016,07,30,16,51,30.90
2016,07,30,16,52,25.90
2016,07,30,16,53,24.10
2016,07,30,16,54,22.60
2016,07,30,16,55,23.10
2016,07,30,16,56,18.30
2016,07,30,16,57,12.90
2016,07,30,16,58,20.10
2016,07,30,16,59,22.30
2016,07,30,17,00,20.00
2016,07,30,17,01,20.10
2016,07,30,17,02,26.60
2016,07,30,17,03,21.20
2016,07,30,17,04,18.50
2016,07,30,17,05,24.90
2016,07,30,17,06,16.10
2016,07,30,17,07,21.30
2016,07,30,17,08,18.80
2016,07,30,17,09,19.20
2016,07,30,17,10,25.30
2016,07,30,17,11,18.50
2016,07,30,17,12,33.40
2016,07,30,17,13,26.80
2016,07,30,17,14,29.20
2016,07,30,17,15,22.40
2016,07,30,17,16,22.30
2016,07,30,17,17,24.10
2016,07,30,17,18,15.90
2016,07,30,17,19,26.20
2016,07,30,17,20,31.60
2016,07,30,17,21,28.10
2016,07,30,17,22,23.70
2016,07,30,17,23,24.90
2016,07,30,17,24,19.00